Simultaneous Nadir Overpasses (SNOs) Predictions

Prediction of SNOs near equator between AQUA and NPP Satellite Orbit:

Table of predicted SNOs near equator for the next 14.0 days since TLE Epoch: 8/1/2015
Index Date (AQUA) Time (AQUA) AQUA Lat,Lon Date (NPP) Time (NPP) NPP Lat,Lon Distance(km) Time Diff (sec)
1 08/01/2015 21:47:51 29.98,-127.77 08/01/2015 21:38:13 30.07,-127.37 39.56 578
2 08/01/2015 22:37:13 -29.96, 39.89 08/01/2015 22:28:53 -29.99, 39.98 8.85 500
3 08/01/2015 23:21:17 10.26,-147.87 08/01/2015 23:14:05 10.26,-147.86 1.30 432
4 08/02/2015 00:05:34 8.15, 23.72 08/01/2015 23:59:32 8.19, 23.61 12.59 362
5 08/02/2015 00:53:50 -12.71,-167.67 08/02/2015 00:49:03 -12.78,-168.05 41.31 287
6 08/02/2015 01:41:56 17.28, 1.01 08/02/2015 01:38:25 17.40, 0.37 69.02 211
7 08/02/2015 02:30:12 -21.81, 169.67 08/02/2015 02:27:56 -21.97, 168.78 94.21 136
8 08/04/2015 14:04:21 29.99, -11.90 08/04/2015 13:55:06 30.08, -11.60 30.30 555
9 08/04/2015 14:53:29 -29.12, 155.98 08/04/2015 14:45:31 -29.12, 155.99 0.50 478
10 08/04/2015 15:35:25 1.69, -30.16 08/04/2015 15:28:32 1.68, -30.16 0.60 413
11 08/04/2015 16:21:42 9.48, 139.88 08/04/2015 16:16:02 9.53, 139.69 21.71 340
12 08/04/2015 17:09:58 -14.02, -51.51 08/04/2015 17:05:33 -14.11, -51.96 50.03 265
13 08/04/2015 17:58:04 18.60, 117.18 08/04/2015 17:54:55 18.74, 116.46 77.19 189
14 08/07/2015 05:31:20 -29.99, -63.65 08/07/2015 05:21:20 -30.64, -63.28 80.77 600
15 08/07/2015 06:20:50 29.96, 103.98 08/07/2015 06:11:57 29.98, 104.20 20.85 533
16 08/07/2015 07:08:06 -22.36, -86.47 08/07/2015 07:00:28 -22.36, -86.48 0.89 458
17 08/07/2015 07:49:59 -5.30, 87.19 08/07/2015 07:43:26 -5.30, 87.17 2.40 393
18 08/07/2015 08:37:50 10.78,-103.97 08/07/2015 08:32:32 10.87,-104.24 30.92 318
19 08/07/2015 09:26:06 -15.33, 64.65 08/07/2015 09:22:03 -15.45, 64.12 58.71 243
20 08/07/2015 10:14:12 19.90,-126.65 08/07/2015 10:11:25 20.07,-127.44 85.24 167
21 08/09/2015 21:47:49 -29.96, 52.23 08/09/2015 21:38:03 -30.08, 52.65 41.71 586
22 08/09/2015 22:37:20 30.00,-140.15 08/09/2015 22:28:50 30.00,-140.03 11.36 510
23 08/09/2015 23:22:03 -13.17, 31.49 08/09/2015 23:14:44 -13.17, 31.49 0.09 439
24 08/10/2015 00:05:50 -7.62,-156.43 08/09/2015 23:59:39 -7.63,-156.53 10.47 371
25 08/10/2015 00:53:56 12.20, 12.22 08/10/2015 00:49:01 12.26, 11.86 39.80 295
26 08/10/2015 01:42:12 -16.74,-179.15 08/10/2015 01:38:32 -16.84,-179.78 67.27 220
27 08/10/2015 02:30:18 21.31, -10.44 08/10/2015 02:27:54 21.47, -11.33 93.08 144
28 08/12/2015 14:04:17 -29.95, 168.11 08/12/2015 13:54:54 -30.03, 168.43 32.12 563
29 08/12/2015 14:53:34 29.15, -24.06 08/12/2015 14:45:27 29.15, -24.03 2.85 487
30 08/12/2015 15:35:50 -3.44, 149.47 08/12/2015 15:28:50 -3.44, 149.47 0.49 420
31 08/12/2015 16:21:56 -8.96, -40.27 08/12/2015 16:16:07 -9.02, -40.44 19.96 349
32 08/12/2015 17:10:02 13.54, 128.39 08/12/2015 17:05:29 13.65, 127.95 48.80 273
33 08/12/2015 17:58:18 -18.07, -62.98 08/12/2015 17:55:00 -18.22, -63.67 75.61 198




NCC Satellite Simultaneous Nadir Overpasses (SNOs) Prediction Service
